When you browse on this site, cookies collect data to enhance your experience and personalize the content and advertising you see.
Visit our Privacy Policy to learn more. By continuing to use the site, you agree to this use of cookies and data.
EN

Hourly Weather Siodmak

Today, 16 July, Thursday

Time Temperature Precipitation Wind Pressure Humidity
00:00 +16°C° 0.1 mm 2 mps 745 mmHg 86%
01:00 +16°C° 0 mm 2 mps 745 mmHg 86%
02:00 +15°C° 0.2 mm 2 mps 745 mmHg 88%
03:00 +15°C° 0.2 mm 2 mps 745 mmHg 90%
04:00 +14°C° 0.2 mm 1 mps 744 mmHg 91%
05:00 +16°C° 0 mm 2 mps 745 mmHg 88%
06:00 +17°C° 0 mm 2 mps 745 mmHg 85%
07:00 +19°C° 0 mm 2 mps 745 mmHg 82%
08:00 +20°C° 1.1 mm 2 mps 745 mmHg 78%
09:00 +21°C° 1.1 mm 2 mps 745 mmHg 75%
10:00 +23°C° 1.1 mm 2 mps 745 mmHg 72%
11:00 +21°C° 1.3 mm 2 mps 745 mmHg 75%
12:00 +21°C° 1.3 mm 2 mps 745 mmHg 78%
13:00 +20°C° 1.3 mm 3 mps 745 mmHg 81%
14:00 +20°C° 0.5 mm 2 mps 745 mmHg 82%
15:00 +20°C° 0.5 mm 2 mps 745 mmHg 83%
16:00 +19°C° 0.5 mm 2 mps 745 mmHg 85%
17:00 +19°C° 0.5 mm 2 mps 745 mmHg 87%
18:00 +18°C° 0.5 mm 2 mps 745 mmHg 90%
19:00 +17°C° 0.5 mm 2 mps 745 mmHg 92%
20:00 +17°C° 0.1 mm 2 mps 745 mmHg 94%
21:00 +16°C° 0.1 mm 2 mps 745 mmHg 96%
22:00 +15°C° 0.1 mm 2 mps 745 mmHg 97%
23:00 +15°C° 0.1 mm 2 mps 745 mmHg 97%

Tomorrow, 17 July, Friday

Time Temperature Precipitation Wind Pressure Humidity
00:00 +15°C° 0.1 mm 2 mps 746 mmHg 98%
01:00 +15°C° 0.1 mm 2 mps 746 mmHg 98%
02:00 +15°C° 0.3 mm 2 mps 746 mmHg 98%
03:00 +15°C° 0.3 mm 2 mps 746 mmHg 98%
04:00 +15°C° 0.3 mm 2 mps 746 mmHg 98%
05:00 +16°C° 0.1 mm 1 mps 746 mmHg 97%
06:00 +16°C° 0.1 mm 1 mps 747 mmHg 95%
07:00 +18°C° 0.1 mm 1 mps 747 mmHg 94%
08:00 +19°C° 0 mm 1 mps 747 mmHg 91%
09:00 +20°C° 0 mm 1 mps 747 mmHg 87%
10:00 +20°C° 0 mm 1 mps 748 mmHg 84%
11:00 +21°C° 0.2 mm 1 mps 748 mmHg 79%
12:00 +22°C° 0.2 mm 1 mps 748 mmHg 74%
13:00 +23°C° 0.2 mm 2 mps 748 mmHg 69%
14:00 +24°C° 0.9 mm 2 mps 748 mmHg 71%
15:00 +24°C° 0.9 mm 1 mps 748 mmHg 72%
16:00 +24°C° 0.9 mm 1 mps 748 mmHg 73%
17:00 +23°C° 0.3 mm 1 mps 748 mmHg 78%
18:00 +22°C° 0.3 mm 1 mps 748 mmHg 82%
19:00 +20°C° 0.3 mm 2 mps 748 mmHg 87%
20:00 +19°C° 0.1 mm 2 mps 748 mmHg 89%
21:00 +18°C° 0.1 mm 2 mps 748 mmHg 92%
22:00 +17°C° 0.1 mm 2 mps 749 mmHg 94%
23:00 +16°C° 0 mm 2 mps 749 mmHg 94%

Day after tomorrow, 18 July, Saturday

Time Temperature Precipitation Wind Pressure Humidity
00:00 +16°C° 0 mm 2 mps 749 mmHg 95%
01:00 +16°C° 0 mm 2 mps 749 mmHg 95%
02:00 +15°C° 0 mm 2 mps 749 mmHg 95%
03:00 +15°C° 0 mm 2 mps 749 mmHg 96%
04:00 +15°C° 0 mm 2 mps 749 mmHg 96%
05:00 +16°C° 0 mm 2 mps 749 mmHg 93%
06:00 +18°C° 0 mm 2 mps 749 mmHg 90%
07:00 +19°C° 0 mm 2 mps 749 mmHg 88%
08:00 +21°C° 0 mm 3 mps 749 mmHg 80%
09:00 +22°C° 0 mm 3 mps 749 mmHg 73%
10:00 +25°C° 0 mm 3 mps 749 mmHg 66%
11:00 +26°C° 0.2 mm 3 mps 749 mmHg 64%
12:00 +26°C° 0.2 mm 3 mps 749 mmHg 63%
13:00 +27°C° 0.2 mm 3 mps 749 mmHg 61%
14:00 +26°C° 0.4 mm 3 mps 749 mmHg 64%
15:00 +26°C° 0.4 mm 3 mps 749 mmHg 68%
16:00 +26°C° 0.4 mm 3 mps 748 mmHg 71%
17:00 +25°C° 0.2 mm 2 mps 748 mmHg 76%
18:00 +23°C° 0.2 mm 2 mps 748 mmHg 81%
19:00 +21°C° 0.2 mm 2 mps 748 mmHg 86%
20:00 +20°C° 0 mm 2 mps 749 mmHg 89%
21:00 +19°C° 0 mm 2 mps 749 mmHg 92%
22:00 +18°C° 0 mm 2 mps 749 mmHg 95%
23:00 +18°C° 0 mm 2 mps 749 mmHg 95%

19 July, Sunday

Time Temperature Precipitation Wind Pressure Humidity
00:00 +18°C° 0 mm 2 mps 749 mmHg 95%
01:00 +17°C° 0 mm 2 mps 749 mmHg 96%
02:00 +17°C° 0 mm 2 mps 749 mmHg 96%
03:00 +17°C° 0 mm 2 mps 749 mmHg 96%
04:00 +17°C° 0 mm 2 mps 749 mmHg 96%
05:00 +18°C° 0 mm 2 mps 749 mmHg 92%
06:00 +20°C° 0 mm 2 mps 749 mmHg 88%
07:00 +21°C° 0 mm 2 mps 749 mmHg 84%
08:00 +24°C° 0 mm 2 mps 748 mmHg 77%
09:00 +25°C° 0 mm 2 mps 748 mmHg 69%
10:00 +27°C° 0 mm 3 mps 748 mmHg 61%
11:00 +27°C° 0.7 mm 3 mps 748 mmHg 63%
12:00 +27°C° 0.7 mm 2 mps 748 mmHg 64%
13:00 +27°C° 0.7 mm 2 mps 748 mmHg 65%
14:00 +27°C° 0.9 mm 2 mps 747 mmHg 66%
15:00 +27°C° 0.9 mm 2 mps 747 mmHg 67%
16:00 +27°C° 0.9 mm 2 mps 747 mmHg 68%
17:00 +26°C° 0.3 mm 2 mps 747 mmHg 73%
18:00 +24°C° 0.3 mm 2 mps 747 mmHg 79%
19:00 +23°C° 0.3 mm 2 mps 747 mmHg 85%
20:00 +21°C° 0 mm 2 mps 747 mmHg 87%
21:00 +20°C° 0 mm 2 mps 747 mmHg 90%
22:00 +19°C° 0 mm 2 mps 747 mmHg 93%
23:00 +19°C° 0 mm 2 mps 747 mmHg 94%

20 July, Monday

Time Temperature Precipitation Wind Pressure Humidity
00:00 +18°C° 0 mm 2 mps 746 mmHg 94%
01:00 +18°C° 0 mm 2 mps 746 mmHg 95%
02:00 +18°C° 0 mm 2 mps 746 mmHg 95%
03:00 +18°C° 0 mm 2 mps 746 mmHg 96%
04:00 +18°C° 0 mm 2 mps 746 mmHg 96%
05:00 +19°C° 0 mm 2 mps 746 mmHg 93%
06:00 +20°C° 0 mm 2 mps 746 mmHg 90%
07:00 +21°C° 0 mm 2 mps 746 mmHg 87%
08:00 +23°C° 0.5 mm 2 mps 745 mmHg 82%
09:00 +24°C° 0.5 mm 3 mps 745 mmHg 78%
10:00 +26°C° 0.5 mm 3 mps 745 mmHg 74%
11:00 +26°C° 1.1 mm 2 mps 745 mmHg 73%
12:00 +26°C° 1.1 mm 2 mps 745 mmHg 72%
13:00 +26°C° 1.1 mm 2 mps 745 mmHg 71%
14:00 +26°C° 1 mm 1 mps 744 mmHg 73%
15:00 +26°C° 1 mm 1 mps 744 mmHg 75%
16:00 +25°C° 1 mm 1 mps 744 mmHg 77%
17:00 +24°C° 0.3 mm 1 mps 744 mmHg 81%
18:00 +23°C° 0.3 mm 1 mps 744 mmHg 84%
19:00 +22°C° 0.3 mm 1 mps 744 mmHg 88%
20:00 +21°C° 0.1 mm 1 mps 744 mmHg 89%
21:00 +21°C° 0.1 mm 1 mps 744 mmHg 91%
22:00 +20°C° 0.1 mm 1 mps 745 mmHg 92%
23:00 +19°C° 0.1 mm 2 mps 745 mmHg 94%

21 July, Tuesday

Time Temperature Precipitation Wind Pressure Humidity
00:00 +18°C° 0.1 mm 3 mps 745 mmHg 95%
01:00 +17°C° 0.1 mm 4 mps 745 mmHg 96%
02:00 +17°C° 0 mm 4 mps 745 mmHg 96%
03:00 +15°C° 0 mm 4 mps 746 mmHg 95%
04:00 +15°C° 0 mm 4 mps 746 mmHg 94%
05:00 +15°C° 0 mm 4 mps 746 mmHg 89%
06:00 +15°C° 0 mm 5 mps 747 mmHg 84%
07:00 +15°C° 0 mm 5 mps 747 mmHg 80%
08:00 +16°C° 0 mm 5 mps 747 mmHg 73%
09:00 +19°C° 0 mm 5 mps 748 mmHg 66%
10:00 +20°C° 0 mm 5 mps 748 mmHg 59%
11:00 +20°C° 0.1 mm 5 mps 748 mmHg 57%
12:00 +20°C° 0.1 mm 5 mps 748 mmHg 54%
13:00 +21°C° 0.1 mm 5 mps 748 mmHg 52%
14:00 +21°C° 0.1 mm 5 mps 748 mmHg 54%
15:00 +20°C° 0.1 mm 4 mps 748 mmHg 57%
16:00 +20°C° 0.1 mm 4 mps 748 mmHg 59%
17:00 +18°C° 0.2 mm 3 mps 747 mmHg 67%
18:00 +17°C° 0.2 mm 2 mps 747 mmHg 75%
19:00 +16°C° 0.2 mm 1 mps 747 mmHg 83%
20:00 +15°C° 0.1 mm 1 mps 747 mmHg 84%
21:00 +14°C° 0.1 mm 1 mps 748 mmHg 86%
22:00 +13°C° 0.1 mm 1 mps 748 mmHg 87%
23:00 +13°C° 0 mm 2 mps 748 mmHg 89%
Show more